Time,TemperatureF,DewpointF,PressureIn,WindDirection,WindDirectionDegrees,WindSpeedMPH,WindSpeedGustMPH,Humidity,HourlyPrecipIn,Conditions,Clouds,dailyrainin,SoftwareType,DateUTC
2013-06-16 00:01:00,55.8,39.4,30.01,WSW,252,15.0,26.0,54,0.00,,,0.00,meteohub,2013-06-16 04:01:00,
2013-06-16 00:02:00,55.8,39.9,30.01,SSW,209,7.0,26.0,55,0.00,,,0.00,meteohub,2013-06-16 04:02:00,
2013-06-16 00:06:00,55.8,40.3,30.01,West,264,15.0,26.0,56,0.00,,,0.00,meteohub,2013-06-16 04:06:00,
2013-06-16 00:07:00,55.8,40.3,30.01,NW,304,10.0,26.0,56,0.00,,,0.00,meteohub,2013-06-16 04:07:00,
2013-06-16 00:12:00,55.8,40.3,30.01,WNW,284,16.0,23.0,56,0.00,,,0.00,meteohub,2013-06-16 04:12:00,
2013-06-16 00:17:00,55.8,40.3,30.02,NW,316,10.0,23.0,56,0.00,,,0.00,meteohub,2013-06-16 04:17:00,
2013-06-16 00:22:00,55.8,40.8,30.02,NW,308,6.0,24.0,57,0.00,,,0.00,meteohub,2013-06-16 04:22:00,
2013-06-16 00:27:00,55.9,41.0,30.01,West,273,13.0,24.0,57,0.00,,,0.00,meteohub,2013-06-16 04:27:00,
2013-06-16 00:32:00,55.9,41.0,30.02,West,261,13.0,24.0,57,0.00,,,0.00,meteohub,2013-06-16 04:32:00,
2013-06-16 00:37:00,55.8,41.2,30.01,WNW,297,7.0,20.0,58,0.00,,,0.00,meteohub,2013-06-16 04:37:00,
2013-06-16 00:42:00,55.8,41.7,30.01,WSW,252,9.0,20.0,59,0.00,,,0.00,meteohub,2013-06-16 04:42:00,
2013-06-16 00:47:00,55.8,41.7,30.01,NNW,340,13.0,19.0,59,0.00,,,0.00,meteohub,2013-06-16 04:47:00,
2013-06-16 00:52:00,55.8,42.1,30.01,West,267,15.0,20.0,60,0.00,,,0.00,meteohub,2013-06-16 04:52:00,
2013-06-16 00:57:00,55.8,42.1,30.01,WNW,289,13.0,20.0,60,0.00,,,0.00,meteohub,2013-06-16 04:57:00,
2013-06-16 01:02:00,55.6,41.9,30.01,WNW,292,10.0,22.0,60,0.00,,,0.00,meteohub,2013-06-16 05:02:00,
2013-06-16 01:07:00,55.6,42.3,30.01,West,266,7.0,22.0,61,0.00,,,0.00,meteohub,2013-06-16 05:07:00,
2013-06-16 01:12:00,55.6,42.8,30.01,WNW,287,7.0,22.0,62,0.00,,,0.00,meteohub,2013-06-16 05:12:00,
2013-06-16 01:17:00,55.6,42.8,30.01,WNW,288,13.0,18.0,62,0.00,,,0.00,meteohub,2013-06-16 05:17:00,
2013-06-16 01:22:00,55.6,43.2,30.01,WNW,286,8.0,18.0,63,0.00,,,0.00,meteohub,2013-06-16 05:22:00,
2013-06-16 01:27:00,55.6,42.8,30.01,WNW,292,9.0,18.0,62,0.00,,,0.00,meteohub,2013-06-16 05:27:00,
2013-06-16 01:32:00,55.6,42.8,30.01,WNW,286,7.0,18.0,62,0.00,,,0.00,meteohub,2013-06-16 05:32:00,
2013-06-16 01:37:00,55.6,42.8,30.01,WNW,291,2.0,18.0,62,0.00,,,0.00,meteohub,2013-06-16 05:37:00,
2013-06-16 01:42:00,55.6,43.2,30.01,NW,313,7.0,18.0,63,0.00,,,0.00,meteohub,2013-06-16 05:42:00,
2013-06-16 01:47:00,55.4,43.0,30.01,West,261,6.0,18.0,63,0.00,,,0.00,meteohub,2013-06-16 05:47:00,
2013-06-16 01:52:00,55.6,43.2,30.01,West,280,11.0,16.0,63,0.00,,,0.00,meteohub,2013-06-16 05:52:00,
2013-06-16 01:57:00,55.6,43.2,30.01,WNW,298,11.0,16.0,63,0.00,,,0.00,meteohub,2013-06-16 05:57:00,
2013-06-16 02:02:00,55.4,43.3,30.01,WNW,298,7.0,16.0,64,0.00,,,0.00,meteohub,2013-06-16 06:02:00,
2013-06-16 02:07:00,55.2,43.3,30.01,NW,304,15.0,16.0,64,0.00,,,0.00,meteohub,2013-06-16 06:07:00,
2013-06-16 02:12:00,55.4,43.9,30.01,NNW,344,13.0,16.0,65,0.00,,,0.00,meteohub,2013-06-16 06:12:00,
2013-06-16 02:17:00,55.2,44.1,30.01,West,261,8.0,20.0,66,0.00,,,0.00,meteohub,2013-06-16 06:17:00,
2013-06-16 02:22:00,55.2,44.4,30.01,West,271,9.0,20.0,67,0.00,,,0.00,meteohub,2013-06-16 06:22:00,
2013-06-16 02:27:00,55.2,44.1,30.01,West,261,5.0,20.0,66,0.00,,,0.00,meteohub,2013-06-16 06:27:00,
2013-06-16 02:32:00,55.2,44.1,30.01,WSW,250,6.0,22.0,66,0.00,,,0.00,meteohub,2013-06-16 06:32:00,
2013-06-16 02:37:00,55.0,44.2,30.01,WNW,302,9.0,22.0,67,0.00,,,0.00,meteohub,2013-06-16 06:37:00,
2013-06-16 02:42:00,55.0,44.2,30.01,WNW,284,10.0,18.0,67,0.00,,,0.00,meteohub,2013-06-16 06:42:00,
2013-06-16 02:47:00,55.2,44.4,30.01,West,271,8.0,18.0,67,0.00,,,0.00,meteohub,2013-06-16 06:47:00,
2013-06-16 02:52:00,55.2,44.8,30.00,WNW,299,6.0,18.0,68,0.00,,,0.00,meteohub,2013-06-16 06:52:00,
2013-06-16 02:57:00,55.0,45.1,30.00,West,279,7.0,18.0,69,0.00,,,0.00,meteohub,2013-06-16 06:57:00,
2013-06-16 03:02:00,55.0,45.5,30.00,WNW,283,7.0,18.0,70,0.00,,,0.00,meteohub,2013-06-16 07:02:00,
2013-06-16 03:07:00,55.0,45.5,30.00,West,280,7.0,16.0,70,0.00,,,0.00,meteohub,2013-06-16 07:07:00,
2013-06-16 03:12:00,55.0,45.9,30.00,NW,321,13.0,20.0,71,0.00,,,0.00,meteohub,2013-06-16 07:12:00,
2013-06-16 03:17:00,55.0,46.2,30.00,WNW,299,9.0,20.0,72,0.00,,,0.00,meteohub,2013-06-16 07:17:00,
2013-06-16 03:22:00,55.2,46.4,29.99,West,270,7.0,20.0,72,0.00,,,0.00,meteohub,2013-06-16 07:22:00,
2013-06-16 03:27:00,55.2,46.4,29.99,West,281,2.0,15.0,72,0.00,,,0.00,meteohub,2013-06-16 07:27:00,
2013-06-16 03:32:00,55.2,46.4,30.00,WSW,246,7.0,15.0,72,0.00,,,0.00,meteohub,2013-06-16 07:32:00,
2013-06-16 03:37:00,55.2,46.4,29.99,NW,317,10.0,18.0,72,0.00,,,0.00,meteohub,2013-06-16 07:37:00,
2013-06-16 03:42:00,55.2,46.4,29.99,NW,312,6.0,19.0,72,0.00,,,0.00,meteohub,2013-06-16 07:42:00,
2013-06-16 03:48:00,55.0,46.2,29.99,NW,319,7.0,19.0,72,0.00,,,0.00,meteohub,2013-06-16 07:48:00,
2013-06-16 03:53:00,55.0,46.2,30.00,West,273,11.0,19.0,72,0.00,,,0.00,meteohub,2013-06-16 07:53:00,
2013-06-16 03:58:00,55.0,45.9,29.99,WNW,301,6.0,15.0,71,0.00,,,0.00,meteohub,2013-06-16 07:58:00,
2013-06-16 04:03:00,55.4,46.2,29.99,WNW,285,6.0,14.0,71,0.00,,,0.00,meteohub,2013-06-16 08:03:00,
2013-06-16 04:08:00,55.2,46.0,29.99,WNW,299,14.0,16.0,71,0.00,,,0.00,meteohub,2013-06-16 08:08:00,
2013-06-16 04:13:00,55.6,46.0,29.99,NW,321,7.0,16.0,70,0.00,,,0.00,meteohub,2013-06-16 08:13:00,
2013-06-16 04:18:00,55.2,46.0,29.98,NW,324,4.0,14.0,71,0.00,,,0.00,meteohub,2013-06-16 08:18:00,
2013-06-16 04:23:00,55.2,46.0,29.99,WNW,301,1.0,14.0,71,0.00,,,0.00,meteohub,2013-06-16 08:23:00,
2013-06-16 04:28:00,55.2,46.0,29.99,WSW,242,6.0,12.0,71,0.00,,,0.00,meteohub,2013-06-16 08:28:00,
2013-06-16 04:33:00,55.2,46.0,29.99,NNW,331,5.0,12.0,71,0.00,,,0.00,meteohub,2013-06-16 08:33:00,
2013-06-16 04:39:00,55.2,46.0,29.99,West,266,6.0,11.0,71,0.00,,,0.00,meteohub,2013-06-16 08:39:00,
2013-06-16 04:44:00,55.6,46.4,29.98,NW,312,6.0,11.0,71,0.00,,,0.00,meteohub,2013-06-16 08:44:00,
2013-06-16 04:49:00,55.8,46.0,29.99,WNW,302,9.0,12.0,70,0.00,,,0.00,meteohub,2013-06-16 08:49:00,
2013-06-16 04:54:00,55.9,45.9,29.99,NW,304,1.0,14.0,69,0.00,,,0.00,meteohub,2013-06-16 08:54:00,
2013-06-16 04:59:00,56.1,45.7,29.99,West,270,12.0,15.0,68,0.00,,,0.00,meteohub,2013-06-16 08:59:00,
2013-06-16 05:04:00,56.5,46.0,29.99,West,260,6.0,15.0,68,0.00,,,0.00,meteohub,2013-06-16 09:04:00,
2013-06-16 05:09:00,56.7,45.9,29.99,WNW,294,7.0,18.0,67,0.00,,,0.00,meteohub,2013-06-16 09:09:00,
2013-06-16 05:14:00,56.7,45.9,29.98,WNW,293,10.0,19.0,67,0.00,,,0.00,meteohub,2013-06-16 09:14:00,
2013-06-16 05:19:00,56.7,45.5,29.98,WSW,257,8.0,19.0,66,0.00,,,0.00,meteohub,2013-06-16 09:19:00,
2013-06-16 05:25:00,56.7,45.5,29.99,SW,217,7.0,18.0,66,0.00,,,0.00,meteohub,2013-06-16 09:25:00,
2013-06-16 05:30:00,56.8,45.1,29.99,WSW,258,10.0,14.0,65,0.00,,,0.00,meteohub,2013-06-16 09:30:00,
2013-06-16 05:35:00,56.7,45.5,29.99,West,267,5.0,15.0,66,0.00,,,0.00,meteohub,2013-06-16 09:35:00,
2013-06-16 05:40:00,56.7,45.5,29.98,West,269,7.0,15.0,66,0.00,,,0.00,meteohub,2013-06-16 09:40:00,
2013-06-16 05:45:00,56.5,45.3,29.98,SSW,207,6.0,14.0,66,0.00,,,0.00,meteohub,2013-06-16 09:45:00,
2013-06-16 05:50:00,56.5,45.7,29.98,South,188,6.0,14.0,67,0.00,,,0.00,meteohub,2013-06-16 09:50:00,
2013-06-16 05:55:00,56.5,45.7,29.98,West,266,6.0,14.0,67,0.00,,,0.00,meteohub,2013-06-16 09:55:00,
2013-06-16 06:00:00,56.5,46.0,29.98,West,263,7.0,12.0,68,0.00,,,0.00,meteohub,2013-06-16 10:00:00,
2013-06-16 06:05:00,56.1,45.7,29.98,WSW,248,8.0,13.0,68,0.00,,,0.00,meteohub,2013-06-16 10:05:00,
2013-06-16 06:11:00,55.9,45.9,29.98,SE,130,4.0,13.0,69,0.00,,,0.00,meteohub,2013-06-16 10:11:00,
2013-06-16 06:16:00,55.9,45.9,29.98,SW,215,1.0,13.0,69,0.00,,,0.00,meteohub,2013-06-16 10:16:00,
2013-06-16 06:21:00,55.9,46.2,29.98,SSW,207,4.0,13.0,70,0.00,,,0.00,meteohub,2013-06-16 10:21:00,
2013-06-16 06:26:00,56.1,46.0,29.98,SSE,148,1.0,13.0,69,0.00,,,0.00,meteohub,2013-06-16 10:26:00,
2013-06-16 06:31:00,56.1,46.4,29.98,South,182,0.0,12.0,70,0.00,,,0.00,meteohub,2013-06-16 10:31:00,
2013-06-16 06:36:00,56.1,46.8,29.98,SSE,162,6.0,10.0,71,0.00,,,0.00,meteohub,2013-06-16 10:36:00,
2013-06-16 06:41:00,56.5,47.5,29.98,WNW,282,3.0,11.0,72,0.00,,,0.00,meteohub,2013-06-16 10:41:00,
2013-06-16 06:46:00,56.7,47.7,29.98,SW,217,6.0,14.0,72,0.00,,,0.00,meteohub,2013-06-16 10:46:00,
2013-06-16 06:51:00,56.8,47.8,29.98,WSW,240,11.0,14.0,72,0.00,,,0.00,meteohub,2013-06-16 10:51:00,
2013-06-16 06:57:00,56.8,47.5,29.98,South,178,2.0,13.0,71,0.00,,,0.00,meteohub,2013-06-16 10:57:00,
2013-06-16 07:02:00,57.0,47.7,29.98,SSW,205,7.0,13.0,71,0.00,,,0.00,meteohub,2013-06-16 11:02:00,
2013-06-16 07:07:00,57.0,47.7,29.98,SW,223,10.0,21.0,71,0.00,,,0.00,meteohub,2013-06-16 11:07:00,
2013-06-16 07:12:00,57.0,47.7,29.98,SW,217,4.0,21.0,71,0.00,,,0.00,meteohub,2013-06-16 11:12:00,
2013-06-16 07:17:00,57.4,48.0,29.98,SW,225,8.0,21.0,71,0.00,,,0.00,meteohub,2013-06-16 11:17:00,
2013-06-16 07:22:00,57.4,47.7,29.98,SSW,210,5.0,14.0,70,0.00,,,0.00,meteohub,2013-06-16 11:22:00,
2013-06-16 07:27:00,57.6,48.2,29.98,South,171,0.0,14.0,71,0.00,,,0.00,meteohub,2013-06-16 11:27:00,
2013-06-16 07:32:00,57.9,48.2,29.97,SW,217,8.0,14.0,70,0.00,,,0.00,meteohub,2013-06-16 11:32:00,
2013-06-16 07:37:00,57.9,47.8,29.97,SSW,208,8.0,14.0,69,0.00,,,0.00,meteohub,2013-06-16 11:37:00,
2013-06-16 07:42:00,57.9,47.5,29.97,WSW,243,13.0,16.0,68,0.00,,,0.00,meteohub,2013-06-16 11:42:00,
2013-06-16 07:47:00,58.3,47.8,29.98,SSW,205,5.0,18.0,68,0.00,,,0.00,meteohub,2013-06-16 11:47:00,
2013-06-16 07:52:00,58.3,47.8,29.98,SSE,163,6.0,18.0,68,0.00,,,0.00,meteohub,2013-06-16 11:52:00,
2013-06-16 07:57:00,58.5,48.4,29.97,WNW,291,2.0,18.0,69,0.00,,,0.00,meteohub,2013-06-16 11:57:00,
2013-06-16 08:02:00,58.5,48.0,29.97,SSW,208,9.0,18.0,68,0.00,,,0.00,meteohub,2013-06-16 12:02:00,
2013-06-16 08:07:00,58.3,47.8,29.97,WSW,250,7.0,18.0,68,0.00,,,0.00,meteohub,2013-06-16 12:07:00,
2013-06-16 08:12:00,58.5,48.4,29.97,SW,216,10.0,15.0,69,0.00,,,0.00,meteohub,2013-06-16 12:12:00,
2013-06-16 08:17:00,58.5,48.0,29.97,West,259,6.0,15.0,68,0.00,,,0.00,meteohub,2013-06-16 12:17:00,
2013-06-16 08:22:00,58.5,48.0,29.98,WSW,252,13.0,20.0,68,0.00,,,0.00,meteohub,2013-06-16 12:22:00,
2013-06-16 08:27:00,58.5,47.5,29.98,SSW,205,5.0,20.0,67,0.00,,,0.00,meteohub,2013-06-16 12:27:00,
2013-06-16 08:32:00,58.5,47.5,29.98,South,170,6.0,20.0,67,0.00,,,0.00,meteohub,2013-06-16 12:32:00,
2013-06-16 08:37:00,58.5,48.0,29.97,WSW,248,13.0,18.0,68,0.00,,,0.00,meteohub,2013-06-16 12:37:00,
2013-06-16 08:42:00,58.5,47.5,29.97,SW,221,7.0,18.0,67,0.00,,,0.00,meteohub,2013-06-16 12:42:00,
2013-06-16 08:47:00,58.3,46.9,29.97,WSW,254,7.0,18.0,66,0.00,,,0.00,meteohub,2013-06-16 12:47:00,
2013-06-16 08:52:00,58.3,46.9,29.97,West,262,6.0,16.0,66,0.00,,,0.00,meteohub,2013-06-16 12:52:00,
2013-06-16 08:57:00,58.3,47.3,29.96,SW,219,6.0,16.0,67,0.00,,,0.00,meteohub,2013-06-16 12:57:00,
2013-06-16 09:02:00,58.3,46.9,29.96,SSW,209,10.0,14.0,66,0.00,,,0.00,meteohub,2013-06-16 13:02:00,
2013-06-16 09:07:00,58.3,46.6,29.96,WSW,240,8.0,14.0,65,0.00,,,0.00,meteohub,2013-06-16 13:07:00,
2013-06-16 09:12:00,58.3,46.9,29.96,SSW,213,7.0,14.0,66,0.00,,,0.00,meteohub,2013-06-16 13:12:00,
2013-06-16 09:17:00,58.3,47.3,29.96,SSW,209,6.0,12.0,67,0.00,,,0.00,meteohub,2013-06-16 13:17:00,
2013-06-16 09:22:00,57.9,46.6,29.96,SSE,163,5.0,12.0,66,0.00,,,0.00,meteohub,2013-06-16 13:22:00,
2013-06-16 09:27:00,57.9,46.6,29.95,South,183,6.0,14.0,66,0.00,,,0.00,meteohub,2013-06-16 13:27:00,
2013-06-16 09:32:00,57.7,46.9,29.95,SSW,193,7.0,14.0,67,0.00,,,0.00,meteohub,2013-06-16 13:32:00,
2013-06-16 09:37:00,57.7,46.9,29.94,South,175,6.0,14.0,67,0.00,,,0.00,meteohub,2013-06-16 13:37:00,
2013-06-16 09:42:00,57.9,46.9,29.94,SSE,151,8.0,11.0,67,0.00,,,0.00,meteohub,2013-06-16 13:42:00,
2013-06-16 09:47:00,57.9,46.6,29.94,SW,220,4.0,11.0,66,0.00,,,0.00,meteohub,2013-06-16 13:47:00,
2013-06-16 09:52:00,58.1,46.4,29.93,SSW,203,10.0,11.0,65,0.00,,,0.00,meteohub,2013-06-16 13:52:00,
2013-06-16 09:57:00,58.5,46.8,29.93,South,170,6.0,18.0,65,0.00,,,0.00,meteohub,2013-06-16 13:57:00,
2013-06-16 10:02:00,58.6,47.3,29.93,SE,132,9.0,18.0,66,0.00,,,0.00,meteohub,2013-06-16 14:02:00,
2013-06-16 10:07:00,58.6,46.6,29.92,SW,225,14.0,18.0,64,0.00,,,0.00,meteohub,2013-06-16 14:07:00,
2013-06-16 10:12:00,58.6,47.3,29.93,WSW,237,6.0,16.0,66,0.00,,,0.00,meteohub,2013-06-16 14:12:00,
2013-06-16 10:17:00,58.8,47.1,29.92,SSW,196,11.0,16.0,65,0.00,,,0.00,meteohub,2013-06-16 14:17:00,
2013-06-16 10:22:00,59.2,46.9,29.92,SSE,162,15.0,16.0,64,0.00,,,0.00,meteohub,2013-06-16 14:22:00,
2013-06-16 10:27:00,59.7,47.5,29.92,SSW,200,7.0,15.0,64,0.00,,,0.00,meteohub,2013-06-16 14:27:00,
2013-06-16 10:32:00,60.3,48.0,29.92,SE,128,7.0,18.0,64,0.00,,,0.00,meteohub,2013-06-16 14:32:00,
2013-06-16 10:37:00,60.3,48.0,29.91,SSW,196,9.0,19.0,64,0.00,,,0.00,meteohub,2013-06-16 14:37:00,
2013-06-16 10:42:00,60.1,47.5,29.91,SSW,210,7.0,19.0,63,0.00,,,0.00,meteohub,2013-06-16 14:42:00,
2013-06-16 10:47:00,60.1,47.8,29.91,WSW,251,5.0,20.0,64,0.00,,,0.00,meteohub,2013-06-16 14:47:00,
2013-06-16 10:52:00,60.1,47.8,29.91,SSE,147,10.0,20.0,64,0.00,,,0.00,meteohub,2013-06-16 14:52:00,
2013-06-16 10:57:00,60.1,47.5,29.91,SSW,213,8.0,15.0,63,0.00,,,0.00,meteohub,2013-06-16 14:57:00,
2013-06-16 11:02:00,60.1,47.8,29.90,SSE,153,5.0,15.0,64,0.00,,,0.00,meteohub,2013-06-16 15:02:00,
2013-06-16 11:07:00,59.9,47.3,29.90,SSW,202,6.0,15.0,63,0.00,,,0.00,meteohub,2013-06-16 15:07:00,
2013-06-16 11:12:00,59.7,47.1,29.89,SSE,157,6.0,20.0,63,0.00,,,0.00,meteohub,2013-06-16 15:12:00,
2013-06-16 11:17:00,59.5,46.9,29.89,SW,224,7.0,23.0,63,0.00,,,0.00,meteohub,2013-06-16 15:17:00,
2013-06-16 11:22:00,59.9,47.3,29.89,South,170,21.0,23.0,63,0.00,,,0.00,meteohub,2013-06-16 15:22:00,
2013-06-16 11:27:00,60.1,47.5,29.89,South,184,14.0,23.0,63,0.00,,,0.00,meteohub,2013-06-16 15:27:00,
2013-06-16 11:32:00,60.3,47.7,29.88,SSW,212,18.0,23.0,63,0.00,,,0.00,meteohub,2013-06-16 15:32:00,
2013-06-16 11:37:00,60.4,47.3,29.88,SSW,205,11.0,23.0,62,0.00,,,0.00,meteohub,2013-06-16 15:37:00,
2013-06-16 11:42:00,61.0,47.8,29.87,SSW,199,18.0,19.0,62,0.00,,,0.00,meteohub,2013-06-16 15:42:00,
2013-06-16 11:47:00,60.8,48.2,29.88,West,272,11.0,22.0,63,0.00,,,0.00,meteohub,2013-06-16 15:47:00,
2013-06-16 11:52:00,60.6,47.1,29.88,SW,222,12.0,22.0,61,0.00,,,0.00,meteohub,2013-06-16 15:52:00,
2013-06-16 11:57:00,60.6,47.5,29.88,SSW,194,20.0,23.0,62,0.00,,,0.00,meteohub,2013-06-16 15:57:00,
2013-06-16 12:02:00,60.6,47.5,29.87,SW,225,16.0,23.0,62,0.00,,,0.00,meteohub,2013-06-16 16:02:00,
2013-06-16 12:07:00,60.4,47.3,29.86,SSW,202,20.0,23.0,62,0.00,,,0.00,meteohub,2013-06-16 16:07:00,
2013-06-16 12:12:00,60.4,47.3,29.86,SSW,200,14.0,27.0,62,0.00,,,0.00,meteohub,2013-06-16 16:12:00,
2013-06-16 12:17:00,60.4,47.8,29.86,SW,225,13.0,27.0,63,0.00,,,0.00,meteohub,2013-06-16 16:17:00,
2013-06-16 12:22:00,60.4,48.2,29.86,SW,215,10.0,27.0,64,0.00,,,0.00,meteohub,2013-06-16 16:22:00,
2013-06-16 12:27:00,60.4,48.2,29.86,SE,142,2.0,22.0,64,0.00,,,0.00,meteohub,2013-06-16 16:27:00,
2013-06-16 12:32:00,60.6,48.4,29.85,South,181,8.0,20.0,64,0.00,,,0.00,meteohub,2013-06-16 16:32:00,
2013-06-16 12:37:00,60.6,48.4,29.85,SW,215,12.0,20.0,64,0.00,,,0.00,meteohub,2013-06-16 16:37:00,
2013-06-16 12:42:00,61.2,49.6,29.85,South,187,9.0,22.0,66,0.00,,,0.00,meteohub,2013-06-16 16:42:00,
2013-06-16 12:47:00,61.2,48.9,29.85,SW,222,12.0,24.0,64,0.00,,,0.00,meteohub,2013-06-16 16:47:00,
2013-06-16 12:52:00,60.8,48.9,29.84,South,187,8.0,24.0,65,0.00,,,0.00,meteohub,2013-06-16 16:52:00,
2013-06-16 12:57:00,60.6,49.3,29.84,SSW,206,14.0,27.0,66,0.00,,,0.00,meteohub,2013-06-16 16:57:00,
2013-06-16 13:02:00,61.0,50.0,29.84,SE,137,6.0,27.0,67,0.00,,,0.00,meteohub,2013-06-16 17:02:00,
2013-06-16 13:07:00,60.6,49.6,29.83,SSE,150,13.0,21.0,67,0.00,,,0.00,meteohub,2013-06-16 17:07:00,
2013-06-16 13:12:00,60.6,49.6,29.83,SW,218,19.0,22.0,67,0.00,,,0.00,meteohub,2013-06-16 17:12:00,
2013-06-16 13:17:00,60.6,50.0,29.83,South,178,6.0,23.0,68,0.00,,,0.00,meteohub,2013-06-16 17:17:00,
2013-06-16 13:22:00,60.3,50.0,29.82,SSE,148,9.0,25.0,69,0.00,,,0.00,meteohub,2013-06-16 17:22:00,
2013-06-16 13:27:00,60.1,49.8,29.82,SW,217,19.0,25.0,69,0.00,,,0.00,meteohub,2013-06-16 17:27:00,
2013-06-16 13:32:00,59.7,50.4,29.81,South,188,10.0,25.0,71,0.00,,,0.00,meteohub,2013-06-16 17:32:00,
2013-06-16 13:37:00,59.7,50.7,29.81,SE,140,12.0,25.0,72,0.00,,,0.00,meteohub,2013-06-16 17:37:00,
2013-06-16 13:42:00,60.1,50.7,29.80,SSE,154,11.0,25.0,71,0.00,,,0.00,meteohub,2013-06-16 17:42:00,
2013-06-16 13:47:00,60.3,50.9,29.80,SSW,192,4.0,21.0,71,0.00,,,0.00,meteohub,2013-06-16 17:47:00,
2013-06-16 13:52:00,60.6,50.7,29.80,SW,230,7.0,30.0,70,0.00,,,0.00,meteohub,2013-06-16 17:52:00,
2013-06-16 13:57:00,60.4,51.1,29.78,South,186,24.0,30.0,71,0.00,,,0.00,meteohub,2013-06-16 17:57:00,
2013-06-16 14:02:00,60.8,51.3,29.79,SSE,167,15.0,25.0,71,0.00,,,0.00,meteohub,2013-06-16 18:02:00,
2013-06-16 14:07:00,61.0,50.7,29.79,WSW,242,9.0,29.0,69,0.00,,,0.00,meteohub,2013-06-16 18:07:00,
2013-06-16 14:12:00,61.2,51.6,29.79,SSW,208,2.0,29.0,71,0.00,,,0.00,meteohub,2013-06-16 18:12:00,
2013-06-16 14:17:00,60.8,51.3,29.78,SW,230,11.0,29.0,71,0.00,,,0.00,meteohub,2013-06-16 18:17:00,
2013-06-16 14:22:00,60.4,51.1,29.78,WNW,284,5.0,25.0,71,0.00,,,0.00,meteohub,2013-06-16 18:22:00,
2013-06-16 14:27:00,60.4,51.4,29.78,SSW,196,11.0,25.0,72,0.00,,,0.00,meteohub,2013-06-16 18:27:00,
2013-06-16 14:32:00,60.3,51.3,29.78,SSW,198,20.0,25.0,72,0.00,,,0.00,meteohub,2013-06-16 18:32:00,
2013-06-16 14:37:00,60.3,51.3,29.79,SE,138,28.0,31.0,72,0.00,,,0.00,meteohub,2013-06-16 18:37:00,
2013-06-16 14:42:00,60.6,51.6,29.79,SSE,163,5.0,31.0,72,0.00,,,0.00,meteohub,2013-06-16 18:42:00,
2013-06-16 14:47:00,60.6,51.6,29.78,SE,145,20.0,31.0,72,0.00,,,0.00,meteohub,2013-06-16 18:47:00,
2013-06-16 14:52:00,60.8,51.8,29.78,SW,219,11.0,28.0,72,0.00,,,0.00,meteohub,2013-06-16 18:52:00,
2013-06-16 14:57:00,61.0,52.0,29.78,SSE,161,9.0,27.0,72,0.00,,,0.00,meteohub,2013-06-16 18:57:00,
2013-06-16 15:02:00,60.6,52.0,29.79,SSW,202,9.0,27.0,73,0.00,,,0.00,meteohub,2013-06-16 19:02:00,
2013-06-16 15:07:00,60.6,52.3,29.78,SSW,213,10.0,27.0,74,0.00,,,0.00,meteohub,2013-06-16 19:07:00,
2013-06-16 15:12:00,60.6,52.7,29.79,SSW,196,9.0,27.0,75,0.00,,,0.00,meteohub,2013-06-16 19:12:00,
2013-06-16 15:17:00,60.4,52.5,29.79,SW,236,5.0,26.0,75,0.00,,,0.00,meteohub,2013-06-16 19:17:00,
2013-06-16 15:22:00,60.4,52.9,29.79,South,175,6.0,26.0,76,0.00,,,0.00,meteohub,2013-06-16 19:22:00,
2013-06-16 15:27:00,61.0,52.7,29.77,SSE,162,15.0,24.0,74,0.00,,,0.00,meteohub,2013-06-16 19:27:00,
2013-06-16 15:32:00,61.7,53.2,29.77,West,263,9.0,24.0,74,0.00,,,0.00,meteohub,2013-06-16 19:32:00,
2013-06-16 15:37:00,61.7,53.2,29.76,WSW,240,26.0,26.0,74,0.00,,,0.00,meteohub,2013-06-16 19:37:00,
2013-06-16 15:42:00,61.3,53.4,29.77,SSE,156,12.0,30.0,75,0.00,,,0.00,meteohub,2013-06-16 19:42:00,
2013-06-16 15:47:00,61.3,53.4,29.77,SSW,192,6.0,30.0,75,0.00,,,0.00,meteohub,2013-06-16 19:47:00,
2013-06-16 15:52:00,61.3,53.4,29.76,WSW,248,15.0,30.0,75,0.00,,,0.00,meteohub,2013-06-16 19:52:00,
2013-06-16 15:57:00,61.3,53.8,29.76,SW,229,26.0,29.0,76,0.00,,,0.00,meteohub,2013-06-16 19:57:00,
2013-06-16 16:02:00,61.3,53.8,29.75,WSW,239,23.0,29.0,76,0.00,,,0.00,meteohub,2013-06-16 20:02:00,
2013-06-16 16:07:00,61.3,53.8,29.76,South,188,18.0,30.0,76,0.00,,,0.00,meteohub,2013-06-16 20:07:00,
2013-06-16 16:12:00,61.3,53.8,29.76,SSW,213,21.0,30.0,76,0.00,,,0.00,meteohub,2013-06-16 20:12:00,
2013-06-16 16:17:00,61.3,53.8,29.75,WSW,250,21.0,30.0,76,0.00,,,0.00,meteohub,2013-06-16 20:17:00,
2013-06-16 16:22:00,61.3,53.8,29.76,SW,223,19.0,33.0,76,0.00,,,0.00,meteohub,2013-06-16 20:22:00,
2013-06-16 16:27:00,61.3,54.1,29.75,SW,225,19.0,33.0,77,0.00,,,0.00,meteohub,2013-06-16 20:27:00,
2013-06-16 16:32:00,61.3,54.1,29.76,West,259,18.0,33.0,77,0.00,,,0.00,meteohub,2013-06-16 20:32:00,
2013-06-16 16:37:00,61.2,54.7,29.76,SW,220,15.0,31.0,79,0.00,,,0.00,meteohub,2013-06-16 20:37:00,
2013-06-16 16:42:00,60.4,54.9,29.77,WSW,237,6.0,29.0,82,0.00,,,0.00,meteohub,2013-06-16 20:42:00,
2013-06-16 16:47:00,59.7,54.9,29.76,SW,235,20.0,29.0,84,0.00,,,0.00,meteohub,2013-06-16 20:47:00,
2013-06-16 16:52:00,59.5,54.7,29.76,SSW,205,18.0,30.0,84,0.00,,,0.00,meteohub,2013-06-16 20:52:00,
2013-06-16 16:57:00,59.7,54.9,29.76,SW,230,16.0,30.0,84,0.00,,,0.00,meteohub,2013-06-16 20:57:00,
2013-06-16 17:02:00,60.1,54.9,29.76,WSW,244,10.0,29.0,83,0.00,,,0.00,meteohub,2013-06-16 21:02:00,
2013-06-16 17:07:00,60.1,55.2,29.76,SW,216,12.0,29.0,84,0.00,,,0.00,meteohub,2013-06-16 21:07:00,
2013-06-16 17:12:00,60.3,55.0,29.76,SW,230,14.0,29.0,83,0.00,,,0.00,meteohub,2013-06-16 21:12:00,
2013-06-16 17:17:00,60.1,55.2,29.76,West,276,13.0,29.0,84,0.00,,,0.00,meteohub,2013-06-16 21:17:00,
2013-06-16 17:22:00,59.9,55.4,29.76,WNW,284,18.0,29.0,85,0.00,,,0.00,meteohub,2013-06-16 21:22:00,
2013-06-16 17:27:00,59.9,55.8,29.76,WNW,285,10.0,27.0,86,0.00,,,0.00,meteohub,2013-06-16 21:27:00,
2013-06-16 17:32:00,60.1,56.1,29.75,WSW,247,15.0,37.0,87,0.00,,,0.00,meteohub,2013-06-16 21:32:00,
2013-06-16 17:37:00,59.7,55.8,29.76,West,264,8.0,37.0,87,0.00,,,0.00,meteohub,2013-06-16 21:37:00,
2013-06-16 17:42:00,59.7,55.8,29.76,SW,231,14.0,29.0,87,0.00,,,0.00,meteohub,2013-06-16 21:42:00,
2013-06-16 17:47:00,59.5,55.9,29.76,West,259,15.0,29.0,88,0.00,,,0.00,meteohub,2013-06-16 21:47:00,
2013-06-16 17:52:00,59.5,56.3,29.77,WSW,252,19.0,23.0,89,0.00,,,0.00,meteohub,2013-06-16 21:52:00,
2013-06-16 17:57:00,59.4,56.5,29.77,West,261,14.0,25.0,90,0.00,,,0.00,meteohub,2013-06-16 21:57:00,
2013-06-16 18:02:00,59.2,56.3,29.77,WSW,248,14.0,28.0,90,0.00,,,0.00,meteohub,2013-06-16 22:02:00,
2013-06-16 18:07:00,59.2,56.5,29.77,West,275,12.0,28.0,91,0.00,,,0.00,meteohub,2013-06-16 22:07:00,
2013-06-16 18:12:00,59.4,56.7,29.78,WSW,250,19.0,28.0,91,0.00,,,0.00,meteohub,2013-06-16 22:12:00,
2013-06-16 18:17:00,59.2,56.5,29.78,West,277,21.0,29.0,91,0.00,,,0.00,meteohub,2013-06-16 22:17:00,
2013-06-16 18:22:00,59.2,56.5,29.78,SW,233,9.0,29.0,91,0.00,,,0.00,meteohub,2013-06-16 22:22:00,
2013-06-16 18:27:00,59.4,56.7,29.78,WNW,284,13.0,29.0,91,0.00,,,0.00,meteohub,2013-06-16 22:27:00,
2013-06-16 18:32:00,59.4,56.7,29.77,WNW,284,22.0,27.0,91,0.00,,,0.00,meteohub,2013-06-16 22:32:00,
2013-06-16 18:37:00,59.4,56.7,29.78,SSW,209,6.0,24.0,91,0.00,,,0.00,meteohub,2013-06-16 22:37:00,
2013-06-16 18:42:00,59.4,57.0,29.78,West,271,16.0,24.0,92,0.00,,,0.00,meteohub,2013-06-16 22:42:00,
2013-06-16 18:47:00,59.5,57.2,29.78,West,268,11.0,23.0,92,0.00,,,0.00,meteohub,2013-06-16 22:47:00,
2013-06-16 18:52:00,59.5,56.8,29.78,West,269,16.0,23.0,91,0.00,,,0.00,meteohub,2013-06-16 22:52:00,
2013-06-16 18:57:00,59.7,57.0,29.78,West,263,12.0,26.0,91,0.00,,,0.00,meteohub,2013-06-16 22:57:00,
2013-06-16 19:02:00,59.7,57.0,29.79,SW,223,16.0,26.0,91,0.00,,,0.00,meteohub,2013-06-16 23:02:00,
2013-06-16 19:07:00,59.7,57.0,29.79,WSW,246,14.0,26.0,91,0.00,,,0.00,meteohub,2013-06-16 23:07:00,
2013-06-16 19:12:00,59.5,56.8,29.79,WSW,248,13.0,26.0,91,0.00,,,0.00,meteohub,2013-06-16 23:12:00,
2013-06-16 19:17:00,59.9,57.0,29.80,WSW,248,11.0,26.0,90,0.00,,,0.00,meteohub,2013-06-16 23:17:00,
2013-06-16 19:22:00,60.1,56.8,29.79,WNW,288,25.0,25.0,89,0.00,,,0.00,meteohub,2013-06-16 23:22:00,
2013-06-16 19:27:00,60.1,56.8,29.80,SW,226,9.0,30.0,89,0.00,,,0.00,meteohub,2013-06-16 23:27:00,
2013-06-16 19:32:00,60.1,56.5,29.80,WSW,240,14.0,30.0,88,0.00,,,0.00,meteohub,2013-06-16 23:32:00,
2013-06-16 19:37:00,60.3,56.7,29.81,SW,233,9.0,30.0,88,0.00,,,0.00,meteohub,2013-06-16 23:37:00,
2013-06-16 19:42:00,60.3,56.7,29.81,WSW,256,10.0,27.0,88,0.00,,,0.00,meteohub,2013-06-16 23:42:00,
2013-06-16 19:47:00,60.1,56.5,29.81,NW,324,6.0,26.0,88,0.00,,,0.00,meteohub,2013-06-16 23:47:00,
2013-06-16 19:52:00,60.1,56.5,29.81,NW,315,8.0,26.0,88,0.00,,,0.00,meteohub,2013-06-16 23:52:00,
2013-06-16 19:57:00,60.1,56.5,29.81,WNW,296,13.0,23.0,88,0.00,,,0.00,meteohub,2013-06-16 23:57:00,
2013-06-16 20:02:00,60.1,56.5,29.81,WNW,302,14.0,22.0,88,0.00,,,0.00,meteohub,2013-06-17 00:02:00,
2013-06-16 20:07:00,60.1,56.5,29.81,WNW,288,12.0,24.0,88,0.00,,,0.00,meteohub,2013-06-17 00:07:00,
2013-06-16 20:12:00,60.1,56.5,29.81,WNW,300,20.0,24.0,88,0.00,,,0.00,meteohub,2013-06-17 00:12:00,
2013-06-16 20:17:00,60.3,56.3,29.81,WSW,242,9.0,26.0,87,0.00,,,0.00,meteohub,2013-06-17 00:17:00,
2013-06-16 20:22:00,60.3,56.1,29.81,WNW,289,8.0,26.0,86,0.00,,,0.00,meteohub,2013-06-17 00:22:00,
2013-06-16 20:27:00,60.1,55.9,29.81,West,260,10.0,26.0,86,0.00,,,0.00,meteohub,2013-06-17 00:27:00,
2013-06-16 20:32:00,60.1,55.6,29.81,WSW,246,12.0,26.0,85,0.00,,,0.00,meteohub,2013-06-17 00:32:00,
2013-06-16 20:37:00,60.1,55.6,29.82,WSW,244,14.0,26.0,85,0.00,,,0.00,meteohub,2013-06-17 00:37:00,
2013-06-16 20:42:00,60.3,55.4,29.82,WSW,242,12.0,26.0,84,0.00,,,0.00,meteohub,2013-06-17 00:42:00,
2013-06-16 20:47:00,60.1,55.6,29.82,NW,306,6.0,34.0,85,0.00,,,0.00,meteohub,2013-06-17 00:47:00,
2013-06-16 20:52:00,59.7,55.6,29.82,WNW,284,25.0,34.0,86,0.00,,,0.00,meteohub,2013-06-17 00:52:00,
2013-06-16 20:57:00,59.7,55.8,29.83,WSW,251,5.0,30.0,87,0.00,,,0.00,meteohub,2013-06-17 00:57:00,
2013-06-16 21:02:00,59.5,55.6,29.83,West,267,8.0,25.0,87,0.00,,,0.00,meteohub,2013-06-17 01:02:00,
2013-06-16 21:07:00,59.4,55.8,29.83,WSW,251,19.0,25.0,88,0.00,,,0.00,meteohub,2013-06-17 01:07:00,
2013-06-16 21:12:00,59.4,55.8,29.85,NW,313,8.0,21.0,88,0.00,,,0.00,meteohub,2013-06-17 01:12:00,
2013-06-16 21:17:00,59.4,56.1,29.85,WNW,282,11.0,21.0,89,0.00,,,0.00,meteohub,2013-06-17 01:17:00,
2013-06-16 21:22:00,59.4,56.1,29.85,West,281,14.0,22.0,89,0.00,,,0.00,meteohub,2013-06-17 01:22:00,
2013-06-16 21:27:00,59.2,55.9,29.86,NW,315,9.0,22.0,89,0.00,,,0.00,meteohub,2013-06-17 01:27:00,
2013-06-16 21:32:00,59.0,56.1,29.86,North,11,1.0,22.0,90,0.00,,,0.00,meteohub,2013-06-17 01:32:00,
2013-06-16 21:37:00,59.0,56.1,29.86,West,263,13.0,15.0,90,0.00,,,0.00,meteohub,2013-06-17 01:37:00,
2013-06-16 21:42:00,59.2,56.3,29.87,WNW,291,8.0,15.0,90,0.00,,,0.00,meteohub,2013-06-17 01:42:00,
2013-06-16 21:47:00,59.2,56.3,29.87,WNW,294,8.0,15.0,90,0.00,,,0.00,meteohub,2013-06-17 01:47:00,
2013-06-16 21:52:00,59.2,56.3,29.87,NW,306,6.0,20.0,90,0.00,,,0.00,meteohub,2013-06-17 01:52:00,
2013-06-16 21:57:00,59.2,56.3,29.88,NW,315,2.0,20.0,90,0.00,,,0.00,meteohub,2013-06-17 01:57:00,
2013-06-16 22:02:00,59.0,56.1,29.88,NNW,336,8.0,22.0,90,0.00,,,0.00,meteohub,2013-06-17 02:02:00,
2013-06-16 22:07:00,58.8,55.6,29.88,WNW,288,8.0,22.0,89,0.00,,,0.00,meteohub,2013-06-17 02:07:00,
2013-06-16 22:12:00,58.6,55.4,29.88,WNW,290,7.0,19.0,89,0.00,,,0.00,meteohub,2013-06-17 02:12:00,
2013-06-16 22:17:00,58.6,55.4,29.88,WNW,286,9.0,15.0,89,0.00,,,0.00,meteohub,2013-06-17 02:17:00,
2013-06-16 22:22:00,58.6,55.4,29.88,WSW,250,13.0,14.0,89,0.00,,,0.00,meteohub,2013-06-17 02:22:00,
2013-06-16 22:27:00,58.8,55.9,29.88,NNW,332,9.0,14.0,90,0.00,,,0.00,meteohub,2013-06-17 02:27:00,
2013-06-16 22:32:00,58.6,55.4,29.89,NW,311,10.0,15.0,89,0.00,,,0.00,meteohub,2013-06-17 02:32:00,
2013-06-16 22:37:00,58.6,55.8,29.88,NW,316,5.0,15.0,90,0.00,,,0.00,meteohub,2013-06-17 02:37:00,
2013-06-16 22:42:00,58.5,55.6,29.88,WNW,302,5.0,15.0,90,0.00,,,0.00,meteohub,2013-06-17 02:42:00,
2013-06-16 22:47:00,58.5,55.6,29.88,WNW,297,10.0,15.0,90,0.00,,,0.00,meteohub,2013-06-17 02:47:00,
2013-06-16 22:52:00,58.5,55.6,29.88,NW,307,9.0,16.0,90,0.00,,,0.00,meteohub,2013-06-17 02:52:00,
2013-06-16 22:57:00,58.5,55.2,29.88,WNW,286,14.0,18.0,89,0.00,,,0.00,meteohub,2013-06-17 02:57:00,
2013-06-16 23:02:00,58.6,55.0,29.88,WNW,284,10.0,19.0,88,0.00,,,0.00,meteohub,2013-06-17 03:02:00,
2013-06-16 23:07:00,58.6,55.0,29.88,NNW,329,13.0,19.0,88,0.00,,,0.00,meteohub,2013-06-17 03:07:00,
2013-06-16 23:12:00,58.8,55.0,29.88,WSW,248,8.0,23.0,87,0.00,,,0.00,meteohub,2013-06-17 03:12:00,
2013-06-16 23:17:00,58.8,55.0,29.89,NW,307,13.0,28.0,87,0.00,,,0.00,meteohub,2013-06-17 03:17:00,
2013-06-16 23:22:00,58.8,55.2,29.88,West,261,15.0,28.0,88,0.00,,,0.00,meteohub,2013-06-17 03:22:00,
2013-06-16 23:27:00,58.8,55.2,29.88,SSW,212,14.0,28.0,88,0.00,,,0.00,meteohub,2013-06-17 03:27:00,
2013-06-16 23:32:00,58.8,55.0,29.88,SSW,201,9.0,23.0,87,0.00,,,0.00,meteohub,2013-06-17 03:32:00,
2013-06-16 23:37:00,58.8,55.0,29.88,WSW,240,10.0,22.0,87,0.00,,,0.00,meteohub,2013-06-17 03:37:00,
2013-06-16 23:42:00,58.8,55.0,29.88,SW,228,7.0,21.0,87,0.00,,,0.00,meteohub,2013-06-17 03:42:00,
2013-06-16 23:47:00,59.2,55.4,29.88,West,259,11.0,21.0,87,0.00,,,0.00,meteohub,2013-06-17 03:47:00,
2013-06-16 23:52:00,58.8,55.2,29.88,West,265,14.0,20.0,88,0.00,,,0.00,meteohub,2013-06-17 03:52:00,
2013-06-16 23:57:00,58.8,55.2,29.88,SW,230,12.0,20.0,88,0.00,,,0.00,meteohub,2013-06-17 03:57:00,